Location: Fort Wayne
(41.1310°N, 85.1290°W)
Time: 18:47:21
(UTC-05:00)

COSMOS 2428 - Visible Passes

Search period start: 18 December 2014 00:00
Search period end: 28 December 2014 00:00
Orbit: 842 x 859 km, 71.0° (Epoch: 18 December)

Date Brightness Start Highest point End Pass type
(mag) Time Alt. Az. Time Alt. Az. Time Alt. Az.
18 Dec 5.1 05:39:35 10° SSE 05:43:56 23° E 05:48:18 10° NE visible
18 Dec 2.9 07:22:13 10° SW 07:27:46 51° WNW 07:33:22 10° NNE visible
18 Dec 5.8 18:03:28 10° WNW 18:06:18 14° W 18:09:07 10° SW visible
19 Dec 5.1 05:27:16 10° SSE 05:31:37 23° E 05:35:58 10° NE visible
19 Dec 2.9 07:09:53 10° SW 07:15:27 51° WNW 07:21:03 10° NNE visible
19 Dec 5.8 17:51:09 10° WNW 17:53:59 14° W 17:56:48 10° SW visible
20 Dec 5.0 05:14:57 10° SSE 05:19:18 23° E 05:23:39 10° NE visible
20 Dec 2.9 06:57:34 10° SW 07:03:08 51° WNW 07:08:44 10° NNE visible
21 Dec 5.0 05:02:38 10° SSE 05:06:59 23° E 05:11:20 10° NE visible
21 Dec 2.9 06:45:15 10° SW 06:50:49 51° WNW 06:56:25 10° NNE visible
22 Dec 4.9 04:50:19 10° SSE 04:54:39 23° E 04:59:00 10° NE visible
22 Dec 2.8 06:32:55 10° SW 06:38:29 51° WNW 06:44:05 10° NNE visible
23 Dec 4.9 04:38:00 10° SSE 04:42:20 23° E 04:46:41 10° NE visible
23 Dec 2.8 06:20:36 10° SW 06:26:10 52° WNW 06:31:46 10° NNE visible
24 Dec 4.8 04:27:43 18° SE 04:30:01 23° E 04:34:21 10° NE visible
24 Dec 2.8 06:10:01 20° SW 06:13:51 52° WNW 06:19:27 10° NNE visible
25 Dec 4.9 04:18:32 22° E 04:18:32 22° E 04:22:01 10° NE visible
25 Dec 2.8 06:00:40 48° W 06:01:31 52° WNW 06:07:07 10° NNE visible
26 Dec 5.2 04:08:07 16° ENE 04:08:07 16° ENE 04:09:42 10° NE visible
26 Dec 3.1 05:50:13 46° NNW 05:50:13 46° NNW 05:54:48 10° NNE visible
27 Dec 5.6 03:57:12 11° NE 03:57:12 11° NE 03:57:22 10° NE visible
27 Dec 3.7 05:39:16 32° N 05:39:16 32° N 05:42:28 10° NNE visible
